Location: Andershausen
(51.8462°N, 9.8595°E)
Time: 13:22:35
(UTC+00:00)

Resurs 1-3 - Visible Passes

Search period start: 14 February 2026 00:00
Search period end: 24 February 2026 00:00
Orbit: 612 x 615 km, 97.7° (Epoch: 13 February)

Date Brightness Start Highest point End Pass type
(mag) Time Alt. Az. Time Alt. Az. Time Alt. Az.
14 Feb 3.5 17:16:37 10° SSE 17:20:51 64° ENE 17:25:08 10° N visible
14 Feb 6.5 18:54:27 10° SW 18:57:18 17° W 19:00:11 10° NW visible
15 Feb 3.5 17:31:55 10° SSE 17:36:13 88° ENE 17:40:33 10° NNW visible
15 Feb 6.9 19:11:02 10° WSW 19:12:52 12° W 19:14:44 10° WNW visible
16 Feb 7.2 05:14:41 10° ENE 05:16:04 11° E 05:17:27 10° ESE visible
16 Feb 4.0 17:47:20 10° S 17:51:36 67° WSW 17:55:55 10° NNW visible
17 Feb 6.8 05:29:00 10° NE 05:31:39 16° E 05:34:17 10° SE visible
17 Feb 4.7 18:02:53 10° S 18:07:01 47° W 18:11:12 10° NNW visible
18 Feb 6.6 05:43:51 10° NE 05:47:11 21° E 05:50:30 10° SE visible
18 Feb 5.4 18:18:34 10° SSW 18:22:28 34° W 18:26:26 10° NNW visible
19 Feb 6.0 18:34:24 10° SSW 18:37:58 25° W 18:41:32 10° NW visible
20 Feb 3.6 17:12:52 10° SSE 17:17:05 59° ENE 17:21:20 10° N visible
20 Feb 6.5 18:50:28 10° SW 18:53:29 18° W 18:56:30 10° NW visible
21 Feb 3.5 17:28:07 10° SSE 17:32:25 83° ENE 17:36:45 10° NNW visible
21 Feb 6.8 19:06:55 10° WSW 19:09:01 13° W 19:11:09 10° WNW visible
22 Feb 7.4 05:11:21 10° ENE 05:12:13 10° E 05:13:05 10° E visible
22 Feb 3.9 17:43:30 10° S 17:47:47 72° WSW 17:52:07 10° NNW visible
23 Feb 6.9 05:25:20 10° NE 05:27:48 15° E 05:30:14 10° ESE visible
23 Feb 4.5 17:59:01 10° S 18:03:11 51° W 18:07:24 10° NNW visible
